Find Starlink 30912

NORAD ID: 58422 Int'l Des: 2023-180 Owner: SPXS Country: US Constellation: starlink operational
LEOCIRCULAR

リアルタイム位置

3D地球を読み込み中...

Starlink 30912について

説明を読み込み中...

次回通過

Passes for default location (London). Set your location on the main map for personalized predictions.

高度履歴

Loading altitude history...

軌道要素

1 58422U 23180W 26130.45315053 .00001413 00000-0 60875-4 0 9992
2 58422 42.9996 281.4862 0001499 274.9273 85.1408 15.27575252138740
Epoch: May 10, 2026 • Age: 9 hours

現在のステータス

高度 482.2 km
速度 7.63 km/s
衛星直下点 7.55°N, 113.64°E
打ち上げ日 Nov 22, 2023
運用期間 2.4 years
タイプ internet

技術仕様

分類 Payload
質量 730.00 kg
乾燥質量 700.00 kg
総質量 730.00 kg
長さ 0.30 m
直径 4.10 m
スパン 29.00 m
形状 Box + pan
製造者 SPXS
バスタイプ Starlink V2M
フェーズステータス In Orbit
所有者/国 SPXS/US

Most Searched